Regional Weather Roundup
Issued by NWS

Home | Current Version | Previous Version | Graphics & Text | Print | Product List | Glossary On
Versions: 1 2 3 4 5 6 7 8 9 10 11 12 13 14 15 16 17 18 19 20 21 22 23 24 25 26 27 28 29 30 31 32 33 34 35 36 37 38 39 40 41 42 43 44 45 46 47 48 49 50
000
ASUS43 KLOT 261712
RWRIL

ILLINOIS REGIONAL WEATHER ROUNDUP
NATIONAL WEATHER SERVICE CHICAGO/ROMEOVILLE IL
1100 AM CST SUN FEB 26 2017

NOTE: "FAIR" INDICATES FEW OR NO CLOUDS BELOW 12,000 FEET WITH NO
SIGNIFICANT WEATHER AND/OR OBSTRUCTIONS TO VISIBILITY.

* THESE STATIONS ARE NOT UNDER NWS QUALITY CONTROL. THEY ALSO MAY NOT
  REPORT WEATHER SUCH AS PRECIPITATION OR FOG.

ILZ001-002-007-009-015-016-024-261800-
NORTHWEST ILLINOIS

CITY           SKY/WX    TMP DP  RH WIND       PRES   REMARKS
MOLINE         PTSUNNY   42  21  43 SW21      29.97R
STERLING*      MOSUNNY   41  23  48 SW17G26   29.95S
$$

ILZ003-004-008-010-011-017-018-261800-
NORTH CENTRAL ILLINOIS

CITY           SKY/WX    TMP DP  RH WIND       PRES   REMARKS
ROCKFORD       MOSUNNY   40  21  46 SW22G32   29.94F
FREEPORT*      SUNNY     38  24  57 SW22      29.94R WCI  27
ROCHELLE*      PTSUNNY   38  25  57 SW26G35   29.95S WCI  27
DE KALB*       CLOUDY    38  22  52 SW22G29   29.96S WCI  27
PERU*          SUNNY     41  19  40 SW22G31   30.00S
$$

ILZ005-006-012>014-019>023-261800-
NORTHEAST ILLINOIS

CITY           SKY/WX    TMP DP  RH WIND       PRES   REMARKS
CHICAGO-OHARE  PTSUNNY   39  17  41 SW21G38   29.96F WCI  29
CHICAGO-MIDWAY PTSUNNY   40  17  39 SW21G35   29.99F
AURORA         CLOUDY    40  19  43 SW25G36   29.98S
LANSING*       PTSUNNY   39  21  49 S28G36    30.02F WCI  27
JOLIET*        MOSUNNY   41  20  42 SW17G29   30.01S
WAUKEGAN       MOSUNNY   38  20  48 SW26G33   29.93R WCI  26
DUPAGE AIRPORT PTSUNNY   40  19  43 SW25G31   29.96S
KANKAKEE*      SUNNY     42  19  40 S23G32    30.05S
WHEELING       PTSUNNY   39  16  39 SW20G33   29.97S WCI  29
MORRIS*        SUNNY     41  20  43 SW25      29.99S
ROMEOVILLE*    MOSUNNY   40  23  52 SW26G33   29.99S
NORTHERLY ISL    N/A     37  16  42 S16         N/A  WCI  28
$$

LMZ740>746-261800-
SOUTHERN LAKE MICHIGAN

STATION/POSITION SKY/WX   TEMP    WIND        PRES    VSBY  WAVE
                          AIR SEA DIR/SP/G                  HT/PER
                          (F)     (DEG/KT/KT) (MB)    (MI)  (FT/S)
HARRISON CRIB              37     200/ 33/ 35   N/A
BURNHAM HARBOR             38     190/ 15/ 24   N/A
CALUMET HARBOR             38     180/ 13/ 19 1015.0F
BURNS HARBOR               37     190/ 18/ 28 1016.9F
MICHIGAN CITY              35     160/ 17/ 20   N/A
$$

ILZ025>027-034>036-040-047-049-050-058-095>099-261800-
WEST-CENTRAL ILLINOIS

CITY           SKY/WX    TMP DP  RH WIND       PRES   REMARKS
QUINCY         SUNNY     45  19  35 SW18      30.04S
GALESBURG*     SUNNY     42  22  45 SW18G25   30.00
MACOMB*        CLOUDY    41  19  40 SW17G25   30.04R
JACKSONVILLE*  SUNNY     42  17  36 S16G25    30.08S
PITTSFIELD*    MOSUNNY   43  19  38 SW17G26   30.08S
$$

ILZ028>032-037-038-041>044-048-051>054-059>061-261800-
CENTRAL ILLINOIS

CITY           SKY/WX    TMP DP  RH WIND       PRES   REMARKS
PONTIAC        MOSUNNY   42  18  37 SW25G32   30.03F
BLOOMINGTON    MOSUNNY   40  18  41 SW25G31   30.04F
DECATUR        MOSUNNY   43  15  32 SW22G31   30.11S
PEORIA         MOSUNNY   41  18  39 S18G25    30.04S
LACON*         SUNNY     41  19  41 SW16G24   30.02R
LINCOLN*       CLOUDY    42  19  39 S10G21    30.08S
SPRINGFIELD    MOSUNNY   44  17  33 S20G30    30.10S
TAYLORVILLE    MOSUNNY   42  17  36 S21G28    30.12S
$$

ILZ033-039-045-046-055>057-062-063-261800-
EAST-CENTRAL ILLINOIS

CITY           SKY/WX    TMP DP  RH WIND       PRES   REMARKS
CHAMPAIGN      MOSUNNY   43  14  31 S25G32    30.10S
RANTOUL*       MOSUNNY   43  16  34 S20G26    30.09S
MATTOON        SUNNY     41  19  41 S14G21    30.13R
PARIS*         SUNNY     40  17  39 S21       30.15S
$$

ILZ079-100>102-261800-
SOUTHWEST ILLINOIS

CITY           SKY/WX    TMP DP  RH WIND       PRES   REMARKS
ALTON          CLOUDY    41  16  36 S16       30.15R
BELLEVILLE     CLOUDY    42  14  33 SE8       30.15S
CAHOKIA*       CLOUDY    42  12  29 S9        30.16R
SPARTA*        CLOUDY    40  16  39 S12G18    30.19R
$$

ILZ064>066-069>071-074>076-080>082-084>086-088>090-092>094-261800-
SOUTH-CENTRAL ILLINOIS

CITY           SKY/WX    TMP DP  RH WIND       PRES   REMARKS
CARBONDALE     CLOUDY    43  20  39 S12       30.19S
CAIRO*         SUNNY     46  20  35 S14       30.22R
EFFINGHAM*     SUNNY     42  20  41 SE8       30.18S
MARION         CLOUDY    45  18  33 S13       30.20R
MT. VERNON     CLOUDY    42  18  37 S12       30.19R
CENTRALIA*     MOSUNNY   43  20  41 S12       30.16S
SALEM*         MOSUNNY   42  14  33 S13       30.17R
METROPOLIS*    MOSUNNY   46  19  34 CALM      30.22R
$$

ILZ067-068-072-073-078-083-087-091-261800-
SOUTHEAST ILLINOIS

CITY           SKY/WX    TMP DP  RH WIND       PRES   REMARKS
LAWRENCEVILLE  SUNNY     43  17  35 S15       30.20S
FLORA*         SUNNY     43  19  38 S15       30.19S
FAIRFIELD*     CLOUDY    41  20  43 S10       30.19R
HARRISBURG*    MOSUNNY   43  22  43 S10       30.21S
ROBINSON*      SUNNY     40  17  39 S14       30.19S
CARMI*         MOSUNNY   43  21  41 SE15      30.20S
$$

ABBREVIATIONS USED IN REMARKS
   TC - TEMPERATURE IN CELSIUS
  WCI - WIND CHILL INDEX
   HX - HEAT INDEX
  VSB - VISIBILITY
$$





USA.gov is the U.S. government's official web portal to all federal, state and local government web resources and services.